Regional Weather Roundup
Issued by NWS

Home | Current Version | Previous Version | Graphics & Text | Print | Product List | Glossary On
Versions: 1 2 3 4 5 6 7 8 9 10 11 12 13 14 15 16 17 18 19 20 21 22 23 24 25 26 27 28 29 30 31 32 33 34 35 36 37 38 39 40 41 42 43 44 45 46 47 48 49 50
514
ASUS45 KBOI 231410
RWRID

IDAHO REGIONAL WEATHER ROUNDUP
NATIONAL WEATHER SERVICE BOISE ID
800 AM MDT MON APR 23 2018

NOTE: "FAIR" INDICATES FEW OR NO CLOUDS BELOW 12000 FEET
WITH NO SIGNIFICANT WEATHER AND/OR OBSTRUCTIONS TO VISIBILITY

IDZ012-014-231500-
SOUTHWEST IDAHO


CITY           SKY/WX    TMP DP  RH WIND       PRES   REMARKS
BOISE          SUNNY     39  26  59 NW7       30.22R WCI  34
CALDWELL       SUNNY     42  26  53 W12       30.25R
MOUNTAIN HOME  SUNNY     41  25  52 NW20G25   30.18R
$$

IDZ016-017-231500-
SOUTHCENTRAL IDAHO


CITY           SKY/WX    TMP DP  RH WIND       PRES   REMARKS
BURLEY         SUNNY     39  26  59 SW18G36   30.15R WCI  30
JEROME         SUNNY     38  26  62 SW17      30.17R WCI  28
TWIN FALLS     SUNNY     39  26  59 SW15      30.19R WCI  31
$$

IDZ019>023-231500-
SOUTHEAST IDAHO


CITY           SKY/WX    TMP DP  RH WIND       PRES   REMARKS
IDAHO FALLS    MOSUNNY   39  33  79 SW14      30.13R WCI  31
POCATELLO      SUNNY     39  30  70 SW16      30.16R WCI  30
REXBURG        CLOUDY    42  38  85 S7        30.11R
$$

IDZ006-010-011-018-031-032-231500-
CENTRAL IDAHO MOUNTAINS


CITY           SKY/WX    TMP DP  RH WIND       PRES   REMARKS
MCCALL         SUNNY     37  21  52 N10       30.18R WCI  30
HAILEY         MOSUNNY   36  34  93 W8        30.11R WCI  29
STANLEY          N/A     32  28  85 CALM      30.16R
SALMON         CLOUDY    44  32  62 E5        30.19R
CHALLIS        CLOUDY    43  30  60 N10       30.15R
$$

IDZ002-004-006-007-026-231500-
NORTHERN IDAHO


CITY           SKY/WX    TMP DP  RH WIND       PRES   REMARKS
LEWISTON       SUNNY     41  31  67 CALM      30.33R
LOWELL           N/A     34  32  92 N3        30.37R
COEUR D`ALENE  SUNNY     36  26  67 N9        30.33R WCI  29
MULLAN PASS    CLOUDY    32  19  58 VRB3      30.26R
$$




USA.gov is the U.S. government's official web portal to all federal, state and local government web resources and services.